CW6823 Weather Reports


Display with metric or nautical units.
time (UTC)temp
F
wind
direction
speed
MPH
gust
MPH
rain 1hr
in
rain 24hr
in
rain mn
in
humidity
%
barometer
mb
20260509201005 82 158 4.0 6.0 0.00 0.00 0.00 44 829.3
20260509200005 82 45 7.0 8.0 0.00 0.00 0.00 42 829.3
20260509195504 81 151 5.0 8.0 0.00 0.00 0.00 42 829.3
20260509195005 81 79 5.0 7.0 0.00 0.00 0.00 44 829.3
20260509194506 81 15 3.0 5.0 0.00 0.00 0.00 48 829.2
20260509194005 81 164 3.0 7.0 0.00 0.00 0.00 43 829.3
20260509193505 81 116 4.0 5.0 0.00 0.00 0.00 41 829.2
20260509192504 80 96 4.0 6.0 0.00 0.00 0.00 42 829.2
20260509192005 81 119 7.0 9.0 0.00 0.00 0.00 42 829.2
20260509191004 80 134 6.0 17.0 0.00 0.00 0.00 45 829.2
20260509185505 79 48 4.0 5.0 0.00 0.00 0.00 46 829.2
20260509185005 79 64 5.0 7.0 0.00 0.00 0.00 47 829.1
20260509184505 79 36 3.0 5.0 0.00 0.00 0.00 49 829.1
20260509184006 80 50 6.0 8.0 0.00 0.00 0.00 49 829.1
20260509183504 80 107 2.0 4.0 0.00 0.00 0.00 49 829.2
20260509183005 80 107 2.0 4.0 0.00 0.00 0.00 49 829.2
20260509182505 80 77 2.0 4.0 0.00 0.00 0.00 51 829.2
20260509182004 80 63 2.0 5.0 0.00 0.00 0.00 48 829.3
20260509180504 79 3 1.0 2.0 0.00 0.00 0.00 51 829.2
20260509180005 78 242 2.0 4.0 0.00 0.00 0.00 56 829.1
20260509175504 78 262 2.0 3.0 0.00 0.00 0.00 53 829.1
20260509175005 78 233 2.0 4.0 0.00 0.00 0.00 54 829.1
20260509174504 78 200 2.0 4.0 0.00 0.00 0.00 55 829.1
20260509174005 78 176 4.0 6.0 0.00 0.00 0.00 56 829.1
20260509173506 77 308 2.0 3.0 0.00 0.00 0.00 53 829.1
20260509173005 78 135 3.0 5.0 0.00 0.00 0.00 54 829.0
20260509172505 78 126 2.0 4.0 0.00 0.00 0.00 57 829.1
20260509172005 78 122 4.0 6.0 0.00 0.00 0.00 54 829.1
20260509170505 77 218 1.0 2.0 0.00 0.00 0.00 61 829.1
20260509170004 77 157 1.0 5.0 0.00 0.00 0.00 60 829.0
20260509165505 77 320 1.0 3.0 0.00 0.00 0.00 62 829.1
20260509165005 76 183 2.0 3.0 0.00 0.00 0.00 63 829.0
20260509164505 76 150 3.0 4.0 0.00 0.00 0.00 65 828.9
20260509164004 75 156 1.0 3.0 0.00 0.00 0.00 66 828.9
20260509163505 75 145 3.0 3.0 0.00 0.00 0.00 64 828.9
20260509163005 75 186 2.0 3.0 0.00 0.00 0.00 66 828.9
20260509162505 75 161 3.0 6.0 0.00 0.00 0.00 67 828.9
20260509162005 74 205 1.0 2.0 0.00 0.00 0.00 69 828.9
20260509161504 74 190 2.0 4.0 0.00 0.00 0.00 69 828.9
20260509160005 74 134 3.0 6.0 0.00 0.00 0.00 70 828.8
20260509155004 72 126 2.0 4.0 0.00 0.00 0.00 71 828.8
20260509154004 72 203 2.0 4.0 0.00 0.00 0.00 73 828.7
20260509153504 72 166 3.0 4.0 0.00 0.00 0.00 75 828.7
20260509153005 71 148 1.0 2.0 0.00 0.00 0.00 77 828.7
20260509151504 70 158 4.0 6.0 0.00 0.00 0.00 79 828.6
20260509151005 70 123 3.0 5.0 0.00 0.00 0.00 79 828.6
20260509150505 69 122 4.0 6.0 0.00 0.00 0.00 80 828.6
20260509150005 69 136 5.0 7.0 0.00 0.00 0.00 80 828.6
20260509145505 69 94 4.0 6.0 0.00 0.00 0.00 82 828.6
20260509144004 69 167 1.0 4.0 0.00 0.00 0.00 82 828.6
20260509143505 69 173 2.0 4.0 0.00 0.00 0.00 83 828.6
20260509143005 68 150 2.0 4.0 0.00 0.00 0.00 82 828.5
20260509142504 68 157 1.0 3.0 0.00 0.00 0.00 83 828.5
20260509142005 68 143 5.0 7.0 0.00 0.00 0.00 84 828.5
20260509140505 67 139 4.0 6.0 0.00 0.00 0.00 84 828.4
20260509140006 67 133 2.0 5.0 0.00 0.00 0.00 85 828.4
20260509135005 65 135 1.0 3.0 0.00 0.00 0.00 87 828.3
20260509134504 66 119 2.0 4.0 0.00 0.00 0.00 88 828.3
20260509134004 65 94 0.0 1.0 0.00 0.00 0.00 91 828.3
20260509133504 65 53 0.0 1.0 0.00 0.00 0.00 92 828.3
20260509133005 64 44 1.0 2.0 0.00 0.00 0.00 92 828.3
20260509132504 63 98 1.0 2.0 0.00 0.00 0.00 92 828.2
20260509132004 62 76 2.0 3.0 0.00 0.00 0.00 93 828.1
20260509131504 62 87 1.0 2.0 0.00 0.00 0.00 93 828.1
20260509131004 61 105 1.0 2.0 0.00 0.00 0.00 94 828.0
20260509130505 61 117 1.0 2.0 0.00 0.00 0.00 94 828.0
20260509130005 60 111 0.0 1.0 0.00 0.00 0.00 94 828.0
20260509125505 60 78 1.0 1.0 0.00 0.00 0.00 94 828.0
20260509125005 59 90 1.0 1.0 0.00 0.00 0.00 94 827.9
20260509124005 58 22 0.0 0.0 0.00 0.00 0.00 93 827.9
20260509123505 57 334 0.0 0.0 0.00 0.00 0.00 93 827.8
20260509123005 56 343 0.0 0.0 0.00 0.00 0.00 93 827.7
20260509122505 56 75 0.0 0.0 0.00 0.00 0.00 93 827.7
20260509122005 56 27 0.0 1.0 0.00 0.00 0.00 93 827.7
20260509121505 56 229 0.0 1.0 0.00 0.00 0.00 93 827.7
20260509121004 56 252 0.0 1.0 0.00 0.00 0.00 93 827.7
20260509120505 55 151 0.0 0.0 0.00 0.00 0.00 93 827.7
20260509120005 55 343 0.0 0.0 0.00 0.00 0.00 93 827.6
20260509115004 56 3 0.0 1.0 0.00 0.00 0.00 93 827.6
20260509114505 56 0 0.0 0.0 0.00 0.00 0.00 93 827.7
20260509114004 56 110 1.0 1.0 0.00 0.00 0.00 93 827.7
20260509113506 56 97 0.0 0.0 0.00 0.00 0.00 93 827.7
20260509112504 55 343 0.0 0.0 0.00 0.00 0.00 93 827.6
20260509112004 56 55 0.0 0.0 0.00 0.00 0.00 93 827.6
20260509111004 56 358 1.0 1.0 0.00 0.00 0.00 93 827.6
20260509110505 56 293 0.0 1.0 0.00 0.00 0.00 93 827.6
20260509110004 56 324 0.0 0.0 0.00 0.00 0.00 93 827.7
20260509105505 56 36 1.0 1.0 0.00 0.00 0.00 93 827.7
20260509105004 56 357 0.0 1.0 0.00 0.00 0.00 93 827.7
20260509104504 56 69 1.0 2.0 0.00 0.00 0.00 93 827.7
20260509104005 56 341 0.0 0.0 0.00 0.00 0.00 93 827.7
20260509103505 56 317 1.0 1.0 0.00 0.00 0.00 93 827.7
20260509103004 56 2 1.0 1.0 0.00 0.00 0.00 93 827.7
20260509102505 56 348 0.0 1.0 0.00 0.00 0.00 93 827.7
20260509102005 56 184 0.0 1.0 0.00 0.00 0.00 93 827.7
20260509101505 56 245 1.0 1.0 0.00 0.00 0.00 93 827.7
20260509101005 56 296 0.0 0.0 0.00 0.00 0.00 93 827.7
20260509100504 56 329 0.0 1.0 0.00 0.00 0.00 93 827.7
20260509100006 57 0 0.0 0.0 0.00 0.00 0.00 93 827.7
20260509095504 56 0 0.0 0.0 0.00 0.00 0.00 93 827.7
20260509095005 56 165 0.0 0.0 0.00 0.00 0.00 92 827.7
20260509094504 56 84 0.0 0.0 0.00 0.00 0.00 92 827.7
20260509094005 57 358 0.0 0.0 0.00 0.00 0.00 92 827.7
20260509093506 57 112 0.0 0.0 0.00 0.00 0.00 92 827.7
20260509093005 57 128 0.0 0.0 0.00 0.00 0.00 92 827.7
20260509092505 57 116 1.0 1.0 0.00 0.00 0.00 92 827.7
20260509091504 57 305 0.0 1.0 0.00 0.00 0.00 92 827.7
20260509091005 58 251 0.0 0.0 0.00 0.00 0.00 92 827.8
20260509090506 58 281 0.0 0.0 0.00 0.00 0.00 92 827.8
20260509090005 58 111 0.0 1.0 0.00 0.00 0.00 92 827.8
20260509085005 58 83 0.0 0.0 0.00 0.00 0.00 92 827.8
20260509084505 58 125 1.0 2.0 0.00 0.00 0.00 92 827.8
20260509084005 58 121 1.0 2.0 0.00 0.00 0.00 92 827.8
20260509083504 58 331 0.0 0.0 0.00 0.00 0.00 92 827.8
20260509083005 58 36 0.0 1.0 0.00 0.00 0.00 92 827.8
20260509082505 58 107 0.0 0.0 0.00 0.00 0.00 92 827.8
20260509082004 58 86 0.0 1.0 0.00 0.00 0.00 92 827.8
20260509081505 58 20 0.0 1.0 0.00 0.00 0.00 92 827.8
20260509081005 58 339 0.0 1.0 0.00 0.00 0.00 92 827.8
20260509080505 58 351 0.0 1.0 0.00 0.00 0.00 92 827.8
20260509080006 59 340 0.0 1.0 0.00 0.00 0.00 92 827.8
20260509075005 59 0 0.0 1.0 0.00 0.00 0.00 92 827.8
20260509074505 59 4 0.0 1.0 0.00 0.00 0.00 92 827.9
20260509074005 59 344 1.0 2.0 0.00 0.00 0.00 92 827.9
20260509073506 59 351 0.0 1.0 0.00 0.00 0.00 92 827.9
20260509073005 59 337 0.0 2.0 0.00 0.00 0.00 92 827.9
20260509072505 59 354 0.0 1.0 0.00 0.00 0.00 92 827.8
20260509072005 59 59 0.0 0.0 0.00 0.00 0.00 92 827.8
20260509071504 59 15 0.0 1.0 0.00 0.00 0.00 92 827.9
20260509071005 59 107 0.0 1.0 0.00 0.00 0.00 92 827.9
20260509070505 59 68 0.0 1.0 0.00 0.00 0.00 92 827.9
20260509070005 59 349 0.0 0.0 0.00 0.00 0.00 92 827.9
20260509065506 60 48 0.0 1.0 0.00 0.00 0.00 92 827.9
20260509065011 60 100 0.0 1.0 0.00 0.00 0.00 92 827.9
20260509064005 60 0 0.0 0.0 0.00 0.00 0.00 91 827.9
20260509063505 60 80 0.0 0.0 0.00 0.00 0.00 92 827.9
20260509063005 60 116 1.0 1.0 0.00 0.00 0.00 92 827.9
20260509062004 60 183 0.0 1.0 0.00 0.00 0.00 91 827.9
20260509061005 60 82 1.0 2.0 0.00 0.00 0.00 91 827.9
20260509060505 60 36 0.0 1.0 0.00 0.00 0.00 91 827.9
20260509060005 60 93 0.0 1.0 0.00 0.00 0.00 91 827.9
20260509055505 60 44 1.0 1.0 0.00 0.00 0.00 91 827.9
20260509055005 60 19 0.0 1.0 0.00 0.00 0.00 91 827.9
20260509054504 60 4 0.0 1.0 0.00 0.00 0.00 91 827.9
20260509053505 61 337 0.0 1.0 0.00 0.00 0.00 91 828.0
20260509053004 61 2 0.0 1.0 0.00 0.00 0.00 91 828.0
20260509052504 61 61 2.0 3.0 0.00 0.00 0.00 91 828.0
20260509052005 61 49 4.0 5.0 0.00 0.00 0.00 91 828.0
20260509051505 61 53 6.0 8.0 0.00 0.00 0.00 91 828.0
20260509051006 61 51 6.0 7.0 0.00 0.00 0.00 91 828.0
20260509050506 61 59 4.0 6.0 0.00 0.00 0.00 91 828.0
20260509050010 60 62 2.0 3.0 0.38 0.00 0.00 91 827.9
20260509045504 60 56 3.0 4.0 0.38 0.00 0.00 91 828.0
20260509045004 60 78 1.0 1.0 0.38 0.00 0.00 91 827.9
20260509044005 61 68 2.0 2.0 0.38 0.00 0.00 91 828.0
20260509043505 61 84 2.0 2.0 0.38 0.00 0.00 91 828.0
20260509043005 61 78 1.0 2.0 0.38 0.00 0.00 91 828.0
20260509042505 61 76 2.0 3.0 0.38 0.00 0.00 92 828.0
20260509042004 61 62 4.0 4.0 0.38 0.00 0.00 92 828.0
20260509041504 61 53 6.0 8.0 0.38 0.00 0.00 92 828.0
20260509041006 61 45 5.0 8.0 0.38 0.00 0.00 92 828.0
20260509040505 61 56 4.0 6.0 0.38 0.00 0.00 91 828.0
20260509040005 61 54 3.0 3.0 0.38 0.00 0.00 91 828.0
20260509035505 61 50 2.0 2.0 0.38 0.00 0.00 91 828.0
20260509035004 61 88 0.0 1.0 0.38 0.00 0.00 91 828.0
20260509034506 62 344 0.0 0.0 0.38 0.00 0.00 91 828.0
20260509034005 62 78 0.0 1.0 0.38 0.00 0.00 91 828.0
20260509033005 62 231 0.0 1.0 0.38 0.00 0.00 91 828.0
20260509032505 62 142 1.0 2.0 0.38 0.00 0.00 91 828.0
20260509032005 62 199 0.0 1.0 0.38 0.00 0.00 91 828.0
20260509031505 62 279 0.0 1.0 0.38 0.00 0.00 90 828.0
20260509031005 62 220 0.0 1.0 0.38 0.00 0.00 90 828.0
20260509030004 62 238 1.0 2.0 0.38 0.00 0.00 90 828.1
20260509025004 62 212 2.0 4.0 0.38 0.00 0.00 90 828.1
20260509024504 62 140 1.0 2.0 0.38 0.00 0.00 91 828.0
20260509024004 62 134 2.0 2.0 0.38 0.00 0.00 91 828.0
20260509023506 62 166 2.0 3.0 0.38 0.00 0.00 91 828.0
20260509023005 62 192 1.0 2.0 0.38 0.00 0.00 91 828.0
20260509022504 62 145 0.0 1.0 0.38 0.00 0.00 91 828.0
20260509022005 62 146 3.0 4.0 0.38 0.00 0.00 91 828.0
20260509021505 62 128 0.0 1.0 0.38 0.00 0.00 91 828.0
20260509020505 62 251 2.0 3.0 0.38 0.00 0.00 91 828.0
20260509020004 62 312 2.0 4.0 0.41 0.00 0.00 90 828.1
20260509015505 62 256 1.0 2.0 0.41 0.00 0.00 90 828.1
20260509015005 63 324 0.0 1.0 0.41 0.00 0.00 90 828.1
20260509014504 63 344 1.0 2.0 0.41 0.00 0.00 89 828.1
20260509014005 63 238 1.0 2.0 0.41 0.00 0.00 89 828.1
20260509013504 63 315 0.0 1.0 0.41 0.00 0.00 88 828.1
20260509012504 63 105 1.0 2.0 0.41 0.00 0.00 88 828.1
20260509012004 63 334 0.0 0.0 0.41 0.00 0.00 87 828.1
20260509011505 63 135 3.0 4.0 0.41 0.00 0.00 86 828.1
20260509011005 63 137 3.0 4.0 0.41 0.00 0.00 86 828.1
20260509010504 63 76 0.0 1.0 0.41 0.00 0.00 88 828.1
20260509010004 63 159 1.0 2.0 0.41 0.00 0.00 88 828.1
20260509005504 63 144 1.0 2.0 0.41 0.00 0.00 88 828.1
20260509005006 63 125 1.0 2.0 0.41 0.00 0.00 88 828.1
20260509004505 63 179 1.0 1.0 0.41 0.00 0.00 87 828.1
20260509004005 63 173 1.0 2.0 0.41 0.00 0.00 86 828.1
20260509003504 63 111 5.0 6.0 0.40 0.00 0.00 86 828.1
20260509003005 63 111 5.0 6.0 0.40 0.00 0.00 84 828.1
20260509002505 63 141 5.0 7.0 0.41 0.00 0.00 86 828.1
20260509002004 63 129 4.0 6.0 0.42 0.00 0.00 84 828.1
20260509001004 64 54 4.0 7.0 0.37 0.00 0.00 83 828.1
20260509000504 65 354 4.0 7.0 0.27 0.00 0.00 83 828.1
20260508235504 67 357 3.0 6.0 0.01 0.00 0.00 84 828.2
20260508235004 71 14 6.0 11.0 0.01 0.00 0.00 78 828.3
20260508234505 75 349 5.0 8.0 0.01 0.00 0.00 67 828.6
20260508234004 78 285 3.0 4.0 0.00 0.00 0.00 60 828.9
20260508233505 78 134 6.0 9.0 0.00 0.00 0.00 58 829.0
20260508232505 79 154 7.0 11.0 0.00 0.00 0.00 56 829.0
20260508232005 79 161 5.0 8.0 0.00 0.00 0.00 56 829.0
20260508231505 79 165 6.0 10.0 0.00 0.00 0.00 56 829.0
20260508231005 80 182 4.0 6.0 0.00 0.00 0.00 55 829.1
20260508230505 80 182 4.0 7.0 0.00 0.00 0.00 53 829.1
20260508230005 80 204 3.0 6.0 0.00 0.00 0.00 53 829.1
20260508225504 80 190 4.0 7.0 0.00 0.00 0.00 53 829.1
20260508225005 81 196 3.0 6.0 0.00 0.00 0.00 53 829.2
20260508224005 81 182 3.0 6.0 0.00 0.00 0.00 53 829.2
20260508223005 81 196 5.0 7.0 0.00 0.00 0.00 51 829.2
20260508222505 81 152 7.0 9.0 0.00 0.00 0.00 52 829.2
20260508221506 81 179 3.0 5.0 0.00 0.00 0.00 52 829.3
20260508221005 81 194 5.0 7.0 0.00 0.00 0.00 51 829.3
20260508220004 81 158 7.0 9.0 0.00 0.00 0.00 51 829.2
20260508215505 81 171 4.0 8.0 0.00 0.00 0.00 52 829.2
20260508214505 81 177 4.0 6.0 0.00 0.00 0.00 51 829.2
20260508214005 80 195 3.0 6.0 0.00 0.00 0.00 52 829.2
20260508213004 82 175 4.0 7.0 0.00 0.00 0.00 50 829.3
20260508212505 82 204 3.0 7.0 0.00 0.00 0.00 51 829.3
20260508212005 82 197 5.0 8.0 0.00 0.00 0.00 50 829.3
20260508211504 82 180 4.0 7.0 0.00 0.00 0.00 51 829.3
20260508210506 81 218 4.0 10.0 0.00 0.00 0.00 52 829.3
20260508210005 82 229 5.0 7.0 0.00 0.00 0.00 51 829.3
20260508205505 81 172 4.0 9.0 0.00 0.00 0.00 51 829.3
20260508205005 81 169 4.0 6.0 0.00 0.00 0.00 51 829.3
20260508204505 81 215 3.0 5.0 0.00 0.00 0.00 51 829.3
20260508203505 80 170 2.0 6.0 0.00 0.00 0.00 51 829.2
20260508202506 80 222 2.0 4.0 0.00 0.00 0.00 53 829.2
20260508202005 80 184 5.0 8.0 0.00 0.00 0.00 51 829.2
20260508201505 80 148 4.0 7.0 0.00 0.00 0.00 51 829.2